Location: Kapla
(46.2483°N, 15.0094°E)
Time: 15:38:33
(UTC+00:00)

ARGOS - Pass Details

Date: 03 March 2021
Orbit: 819 x 835 km, 98.4° (Epoch: 14 April)

Event Time Altitude Azimuth Distance (km) Brightness Sun altitude
Rises 17:48:35 0° 162° (SSE) 3,366 6.1 -11.1°
Reaches altitude 10° 17:50:55 10° 162° (SSE) 2,438 5.4 -11.5°
Maximum altitude 17:56:20 85° 75° (ENE) 845 3.1 -12.4°
Drops below altitude 10° 18:01:48 10° 347° (NNW) 2,458 5.8 -13.3°
Sets 18:04:11 0° 347° (NNW) 3,396 6.6 -13.8°
